Regional Weather Roundup
Issued by NWS Goodland, KS

Home | Current Version | Previous Version | Graphics & Text | Print | Product List | Glossary On
Versions: 1 2 3 4 5 6 7 8 9 10 11 12 13 14 15 16 17 18 19 20 21 22 23 24 25 26 27 28 29 30 31 32 33 34 35 36 37 38 39 40 41 42 43 44 45 46 47 48 49 50
000
ASUS43 KGLD 251408
RWRGLD

GOODLAND FORECAST AREA HOURLY WEATHER ROUNDUP
NATIONAL WEATHER SERVICE GOODLAND KS
800 AM MDT SUN JUN 25 2017

...OFFICIAL OBSERVATIONS...

CITY           SKY/WX    TMP DP  RH WIND       PRES   REMARKS
GOODLAND KS    CLOUDY    55  53  93 N22       30.35R
HILL CITY KS   PTSUNNY   64  56  75 NE10      30.36R
IMPERIAL NEB   LGT RAIN  52  44  74 SE10      30.39R
MCCOOK NEB     CLOUDY    55  44  66 E7        30.39R
AKRON CO       NOT AVBL
BURLINGTON CO  MOSUNNY   61  50  67 S14       30.33R
LIMON CO       SUNNY     55  50  83 CALM      30.37R
$$

...UNOFFICIAL OBSERVATIONS...

CITY           SKY/WX    TMP DP  RH WIND       PRES   REMARKS
LENORA KS        N/A     59  32  36 MISG        N/A
NORTON KS      CLOUDY    55  43  62 E8        30.36S
SHARON SPRINGS   N/A     65  53  65 SE15        N/A
TRENTON NEB      N/A     55  32  41 E7          N/A
KIT CARSON CO    N/A     63  52  67 MISG        N/A
YUMA CO        CLOUDY    52  52 100 NE9       30.36R
$$



USA.gov is the U.S. government's official web portal to all federal, state and local government web resources and services.